Tracking 29924 objects as of 4-Dec-2024
HD Live streaming from Space Station
objects crossing your sky now

STARLINK-30238

Track STARLINK-30238 now!
10-day predictions
STARLINK-30238 is classified as:


NORAD ID: 57296
Int'l Code: 2023-096G
Perigee: 565.5 km
Apogee: 566.9 km
Inclination: 43.0 °
Period: 95.8 minutes
Semi major axis: 6937 km
RCS: Unknown
Launch date: July 10, 2023
Source: United States (US)
Launch site: AIR FORCE EASTERN TEST RANGE (AFETR)
Your satellite tracking list
Your tracking list is empty




NASA's NSSDC Master Catalog

Two Line Element Set (TLE):
1 57296U 23096G   24338.05548898  .00001146  00000-0  99905-4 0  9994
2 57296  43.0018 211.7241 0001036 260.9623  99.1102 15.02536547 77074
Source of the keplerian elements: AFSPC